This is the latest recevied weather packets stored in our database for station/object KG0HG. If no packets are shown the sender has not sent any weather packets the latest 10 day(s).
| Time | Temp. | Humidity | Pressure | Rain* | Wind** | Luminosity | Snow |
|---|---|---|---|---|---|---|---|
| 1778085458 | 12.78° C | 40% | 1019.2 hPa | 0 mm | - | 156 W/m² | - |
| 1778085152 | 12.78° C | 43% | 1019.3 hPa | 0 mm | - | 145 W/m² | - |
| 1778084849 | 12.78° C | 42% | 1019.2 hPa | 0 mm | - | 137 W/m² | - |
| 1778084547 | 12.78° C | 39% | 1019.3 hPa | 0 mm | - | 139 W/m² | - |
| 1778084244 | 12.22° C | 41% | 1019.3 hPa | 0 mm | - | 141 W/m² | - |
| 1778083941 | 12.22° C | 40% | 1019.3 hPa | 0 mm | - | 147 W/m² | - |
| 1778083639 | 12.22° C | 42% | 1019.1 hPa | 0 mm | - | 132 W/m² | - |
| 1778083335 | 12.78° C | 40% | 1019.1 hPa | 0 mm | - | 122 W/m² | - |
| 1778083034 | 12.78° C | 39% | 1019 hPa | 0 mm | - | 141 W/m² | - |
| 1778082731 | 13.33° C | 41% | 1019 hPa | 0 mm | - | 128 W/m² | - |
| 1778081598 | 12.22° C | 43% | 1018.9 hPa | 0 mm | - | 32 W/m² | - |
| 1778081295 | 12.22° C | 43% | 1018.8 hPa | 0 mm | - | 31 W/m² | - |
| 1778080992 | 12.22° C | 41% | 1018.9 hPa | 0 mm | - | 29 W/m² | - |
| 1778080691 | 12.22° C | 46% | 1018.8 hPa | 0 mm | - | 29 W/m² | - |
| 1778080387 | 11.67° C | 45% | 1018.9 hPa | 0 mm | - | 29 W/m² | - |
| 1778080084 | 11.67° C | 47% | 1019 hPa | 0 mm | - | 29 W/m² | - |
| 1778079781 | 11.67° C | 47% | 1019.1 hPa | 0 mm | - | 29 W/m² | - |
| 1778079478 | 11.67° C | 49% | 1018.8 hPa | 0 mm | - | 38 W/m² | - |
| 1778079174 | 11.67° C | 52% | 1018.8 hPa | 0 mm | - | 41 W/m² | - |
| 1778078872 | 11.67° C | 51% | 1019 hPa | 0 mm | - | 30 W/m² | - |
| 1778078569 | 11.67° C | 53% | 1018.9 hPa | 0 mm | - | 32 W/m² | - |
| 1778078266 | 11.67° C | 52% | 1018.7 hPa | 0 mm | - | 41 W/m² | - |
| 1778077963 | 11.67° C | 59% | 1018.6 hPa | 0 mm | - | 34 W/m² | - |
| 1778077662 | 11.11° C | 57% | 1018.7 hPa | 0 mm | - | 58 W/m² | - |
| 1778077359 | 11.11° C | 57% | 1018.6 hPa | 0 mm | - | 53 W/m² | - |
* Rain latest hour (hover to see other rain measurements)
** Current wind speed in m/s (hover to see current wind gust speed)